Weather Roundup
Issued by NWS Chicago, IL

Home | Current Version | Previous Version | Graphics & Text | Print | Product List | Glossary On
Versions: 1 2 3 4 5 6 7 8 9 10 11 12 13 14 15 16 17 18 19 20 21 22 23 24 25 26 27 28 29 30 31 32 33 34 35 36 37 38 39 40 41 42 43 44 45 46 47 48 49 50
000
NZUS59 KLOT 281809
HRRLOT

CHICAGO AREA WEATHER ROUNDUP
NATIONAL WEATHER SERVICE CHICAGO/ROMEOVILLE IL
100 PM CDT SAT MAY 28 2016

NOTE: "FAIR" INDICATES FEW OR NO CLOUDS BELOW 12,000 FEET WITH NO
SIGNIFICANT WEATHER AND/OR OBSTRUCTIONS TO VISIBILITY.

* THESE STATIONS ARE NOT UNDER NWS QUALITY CONTROL. THEY ALSO MAY NOT
  REPORT WEATHER SUCH AS PRECIPITATION OR FOG.

ILZ005-006-012>014-019>023-281900-
NORTHEAST ILLINOIS

CITY           SKY/WX    TMP DP  RH WIND       PRES   REMARKS
OHARE          CLOUDY    75  65  70 SW16G22   29.92S
6HR MIN TEMP:  70; 6HR MAX TEMP:  76;

MIDWAY         CLOUDY    76  63  64 S18G25    29.93S
6HR MIN TEMP:  73; 6HR MAX TEMP:  78;

AURORA         CLOUDY    79  66  64 S16G30    29.93S HX  81
6HR MIN TEMP:  71; 6HR MAX TEMP:  79;

LANSING*       CLOUDY    76  65  68 SW16G23   29.95F
JOLIET*        CLOUDY    76  67  73 S13G18    29.94S
WAUKEGAN       CLOUDY    76  65  68 S15       29.90S
6HR MIN TEMP:  67; 6HR MAX TEMP:  77; 6HR PCP: TRACE;

DUPAGE AIRPORT CLOUDY    75  64  68 S16G26    29.92S
6HR MIN TEMP:  70; 6HR MAX TEMP:  75;

WHEELING       CLOUDY    75  64  68 S17       29.93R
6HR MIN TEMP:  71; 6HR MAX TEMP:  77;

KANKAKEE*      CLOUDY    74  66  75 S12G17    29.97S
MORRIS*        CLOUDY    76  67  73 S15       29.92F
LEWIS AIRPORT* CLOUDY    75  63  67 S20       29.94S
$$

WIZ051-052-058>065-066-070>072-281900-
SOUTHEAST WISCONSIN

CITY           SKY/WX    TMP DP  RH WIND       PRES   REMARKS
MILWAUKEE      CLOUDY    77  64  64 S18G26    29.88S
6HR MIN TEMP:  69; 6HR MAX TEMP:  77;

KENOSHA*       CLOUDY    76  63  64 S18G28    29.90S
RACINE*        CLOUDY    77  62  59 S21G29    29.91S
BURLINGTON     CLOUDY    74  64  69 S13G20    29.89S
WAUKESHA       CLOUDY    73  64  73 S9        29.89S
WEST BEND      CLOUDY    73  64  73 S8        29.87R
$$

INZ001>003-010>013-019-020-281900-
NORTHWEST INDIANA

CITY           SKY/WX    TMP DP  RH WIND       PRES   REMARKS
GARY*          CLOUDY    79  72  78 S14G28    29.95S HX  82
MICHIGAN CITY* NOT AVBL
RENSSELAER*    NOT AVBL
VALPARAISO     CLOUDY    77  64  64 S18G30    29.98F
$$

LMZ740>746-281900-
SOUTHERN LAKE MICHIGAN

STATION/POSITION TIME  SKY/WX   TEMP WIND        PRES    VSBY
                                AIR  DIR/SP/G
                 (UTC)          (F)  (DEG/KT/KT) (MB)    (MI)
HARRISON CRIB    1700            71  190/ 23/ 24   N/A
BURNHAM HARBOR   1800            75  190/ 23       N/A
CALUMET HARBOR   1700            75  180/ 14/ 20 1013.3R
BURNS HARBOR     1700            75  190/ 14/ 25 1014.9R
MICHIGAN CITY    1700            76  160/ 18/ 22   N/A
$$

ABBREVIATIONS USED IN REMARKS
   TC - TEMPERATURE IN CELSIUS
  WCI - WIND CHILL INDEX
   HX - HEAT INDEX
  VSB - VISIBILITY
$$




USA.gov is the U.S. government's official web portal to all federal, state and local government web resources and services.